Location: Unspecified
(0.0000°N, 0.0000°E)
Time: 05:31:02
(UTC+00:00)

Transit 4A - Visible Passes

Search period start: 18 June 2019 00:00
Search period end: 28 June 2019 00:00
Orbit: 862 x 983 km, 66.8° (Epoch: 17 June)

Date Brightness Start Highest point End Pass type
(mag) Time Alt. Az. Time Alt. Az. Time Alt. Az.
18 Jun 7.8 19:23:53 10° NNW 19:30:03 87° ENE 19:33:21 28° SSE visible
19 Jun 8.4 19:33:22 10° NNW 19:39:20 54° WSW 19:43:23 20° S visible
20 Jun 9.4 19:43:17 10° NW 19:48:36 31° WSW 19:53:27 12° SSW visible
21 Jun 10.2 19:53:54 10° WNW 19:57:53 18° WSW 20:01:49 10° SSW visible
22 Jun 10.5 05:20:22 10° SE 05:23:00 13° ESE 05:25:38 10° E visible
23 Jun 10.1 05:27:39 10° SSE 05:32:19 23° ESE 05:37:03 10° ENE visible
23 Jun 8.1 18:24:19 10° NNW 18:30:26 77° WSW 18:36:22 10° SSE visible
24 Jun 9.3 05:36:00 10° S 05:41:35 40° ESE 05:47:19 10° NE visible
24 Jun 9.0 18:33:57 10° NW 18:39:43 44° WSW 18:45:20 10° S visible
25 Jun 9.9 18:44:04 10° NW 18:48:59 26° WSW 18:53:49 10° SSW visible
26 Jun 10.4 18:55:07 10° WNW 18:58:17 15° WSW 19:01:25 10° SW visible
27 Jun 10.3 04:19:46 10° SSE 04:23:24 16° ESE 04:27:05 10° ENE visible
